COSMOS 2516 (753)

Last updated on Nov. 12, 2019, 4:19 a.m. UTC

1 41554U 16032A   19315.32728066 -.00000013  00000-0  00000+0 0  9998
2 41554  64.2032 274.5232 0014289 225.0637 152.7635  2.13101724 26875
UTC
Height (km)
Latitude
Longitude
Inclination
Orbital Period
UTC large
Height (km)
Speed (km/s)
/
Latitude / Longitude
Inclination (degrees)
Orbital Period (minutes)
Azimuth
Elevation
Range (km)
Doppler Factor
iOS Compass Heading
iOS Angle

Next 30 passes for location: Hong Kong

Rise time Rise Azimuth (degrees) Set time Set Azimuth (degrees) Duration Max altitude (degrees)

No matching passes for this satellites